WWA3311 KFTW-KLAS

Flight info

Callsign WWA3311
Flight time N/A
Altitude 43000
Route BOTCH1 BRHMA CNX ZUN HAHAA RKSTR4
Aircraft E55P/M-SBDFGHJ2RWY/LB2

Departure

Time 2026-04-21 12:14
Airport Fort Worth Meacham International Airport (KFTW)

Arrival

Time N/A
Airport Harry Reid International Airport (KLAS)
Time Latitude Longitude Altitude Speed Heading
2026-04-21 12:00 32.82032 -97.35552 682 ft 0 kts 139°
2026-04-21 12:10 32.82030 -97.35551 681 ft 1 kts 139°
2026-04-21 12:11 32.82003 -97.35562 681 ft 7 kts 225°
2026-04-21 12:11 32.81972 -97.35631 682 ft 11 kts 257°
2026-04-21 12:11 32.81997 -97.35718 683 ft 13 kts 320°
2026-04-21 12:11 32.82085 -97.35807 685 ft 16 kts 319°
2026-04-21 12:12 32.82191 -97.35919 687 ft 20 kts 319°
2026-04-21 12:12 32.82294 -97.35995 689 ft 21 kts 348°
2026-04-21 12:12 32.82441 -97.36025 691 ft 24 kts 353°
2026-04-21 12:12 32.82646 -97.36057 694 ft 26 kts 353°
2026-04-21 12:13 32.82847 -97.36088 696 ft 25 kts 351°
2026-04-21 12:13 32.83009 -97.36121 696 ft 16 kts 320°
2026-04-21 12:13 32.82993 -97.36246 691 ft 17 kts 194°
2026-04-21 12:13 32.82873 -97.36229 691 ft 16 kts 173°
2026-04-21 12:14 32.82505 -97.36164 690 ft 89 kts 170°
2026-04-21 12:14 32.81673 -97.36017 704 ft 146 kts 171°
2026-04-21 12:14 32.80679 -97.35852 1203 ft 161 kts 171°
2026-04-21 12:14 32.79522 -97.35562 2001 ft 163 kts 166°
2026-04-21 12:15 32.78354 -97.35253 2716 ft 171 kts 174°
2026-04-21 12:15 32.77161 -97.35738 3557 ft 176 kts 225°
2026-04-21 12:15 32.76712 -97.37060 4355 ft 179 kts 274°
2026-04-21 12:15 32.77145 -97.38448 5084 ft 184 kts 298°
2026-04-21 12:16 32.77819 -97.39870 5770 ft 194 kts 294°
2026-04-21 12:16 32.78453 -97.41512 6489 ft 205 kts 291°
2026-04-21 12:16 32.79054 -97.43044 7120 ft 216 kts 292°
2026-04-21 12:16 32.79771 -97.44843 7769 ft 231 kts 292°
2026-04-21 12:17 32.80544 -97.46786 8347 ft 250 kts 292°
2026-04-21 12:17 32.81330 -97.48872 8917 ft 266 kts 289°
2026-04-21 12:17 32.81526 -97.50988 9519 ft 268 kts 256°
2026-04-21 12:17 32.81106 -97.53264 10350 ft 272 kts 258°
2026-04-21 12:18 32.80712 -97.55695 11103 ft 280 kts 257°
2026-04-21 12:18 32.80308 -97.58190 11796 ft 289 kts 257°
2026-04-21 12:18 32.79918 -97.60577 12439 ft 297 kts 257°
2026-04-21 12:18 32.79501 -97.63133 13109 ft 305 kts 257°
2026-04-21 12:19 32.79094 -97.65627 13749 ft 311 kts 257°
2026-04-21 12:19 32.78668 -97.68231 14405 ft 318 kts 257°
2026-04-21 12:19 32.78234 -97.70882 15057 ft 323 kts 257°
2026-04-21 12:19 32.77930 -97.73682 15701 ft 331 kts 271°
2026-04-21 12:20 32.78587 -97.76592 16430 ft 337 kts 284°
2026-04-21 12:20 32.79268 -97.79560 17130 ft 340 kts 284°
2026-04-21 12:20 32.79926 -97.82352 17734 ft 344 kts 283°
2026-04-21 12:20 32.80597 -97.85206 18262 ft 351 kts 283°
2026-04-21 12:21 32.81342 -97.88390 18843 ft 357 kts 283°
2026-04-21 12:21 32.82068 -97.91502 19403 ft 362 kts 283°
2026-04-21 12:21 32.82761 -97.94466 19934 ft 366 kts 283°
2026-04-21 12:21 32.83454 -97.97439 20461 ft 369 kts 283°
2026-04-21 12:22 32.84225 -98.00748 21040 ft 372 kts 283°
2026-04-21 12:22 32.84972 -98.03958 21586 ft 375 kts 283°
2026-04-21 12:22 32.85677 -98.06992 22090 ft 377 kts 283°
2026-04-21 12:22 32.86389 -98.10062 22596 ft 378 kts 283°
2026-04-21 12:23 32.87168 -98.13423 23148 ft 379 kts 283°
2026-04-21 12:23 32.87920 -98.16671 23685 ft 380 kts 283°
2026-04-21 12:23 32.88635 -98.19769 24197 ft 381 kts 283°
2026-04-21 12:23 32.89338 -98.22813 24699 ft 381 kts 283°
2026-04-21 12:24 32.90118 -98.26189 25217 ft 382 kts 283°
2026-04-21 12:24 32.90893 -98.29546 25660 ft 384 kts 283°
2026-04-21 12:24 32.91629 -98.32736 26082 ft 386 kts 283°
2026-04-21 12:24 32.92337 -98.35814 26485 ft 388 kts 282°
2026-04-21 12:25 32.93108 -98.39167 26924 ft 389 kts 282°
2026-04-21 12:25 32.93887 -98.42561 27366 ft 390 kts 282°
2026-04-21 12:25 32.94667 -98.45964 27807 ft 391 kts 282°
2026-04-21 12:25 32.95388 -98.49110 28214 ft 392 kts 282°
2026-04-21 12:26 32.96157 -98.52473 28652 ft 392 kts 282°
2026-04-21 12:26 32.96944 -98.55920 29104 ft 392 kts 282°
2026-04-21 12:26 32.97704 -98.59251 29540 ft 392 kts 282°
2026-04-21 12:26 32.98430 -98.62437 29957 ft 391 kts 282°
2026-04-21 12:27 32.99112 -98.65437 30342 ft 391 kts 281°
2026-04-21 12:27 32.99887 -98.68848 30787 ft 390 kts 281°
2026-04-21 12:27 33.00626 -98.72104 31211 ft 390 kts 281°
2026-04-21 12:27 33.01360 -98.75344 31632 ft 389 kts 281°
2026-04-21 12:28 33.02098 -98.78606 32048 ft 388 kts 281°
2026-04-21 12:28 33.02880 -98.82068 32490 ft 386 kts 281°
2026-04-21 12:28 33.03581 -98.85172 32886 ft 385 kts 281°
2026-04-21 12:28 33.04297 -98.88348 33293 ft 383 kts 281°
2026-04-21 12:29 33.05032 -98.91616 33720 ft 382 kts 281°
2026-04-21 12:29 33.05793 -98.95003 34164 ft 380 kts 281°
2026-04-21 12:29 33.06468 -98.98010 34559 ft 378 kts 281°
2026-04-21 12:29 33.07165 -99.01117 34967 ft 376 kts 281°
2026-04-21 12:30 33.07880 -99.04308 35386 ft 373 kts 281°
2026-04-21 12:30 33.08595 -99.07503 35807 ft 371 kts 281°
2026-04-21 12:30 33.09258 -99.10473 36200 ft 368 kts 281°
2026-04-21 12:30 33.09941 -99.13533 36607 ft 365 kts 281°
2026-04-21 12:31 33.10278 -99.15044 36808 ft 364 kts 281°
2026-04-21 12:31 33.11002 -99.18297 37240 ft 361 kts 281°
2026-04-21 12:31 33.11639 -99.21158 37623 ft 358 kts 281°
2026-04-21 12:31 33.12301 -99.24139 38023 ft 354 kts 281°
2026-04-21 12:32 33.12974 -99.27172 38428 ft 350 kts 281°
2026-04-21 12:32 33.13627 -99.30119 38825 ft 346 kts 281°
2026-04-21 12:32 33.14241 -99.32892 39203 ft 342 kts 281°
2026-04-21 12:32 33.14854 -99.35664 39584 ft 338 kts 281°
2026-04-21 12:33 33.15480 -99.38500 39980 ft 333 kts 282°
2026-04-21 12:33 33.16067 -99.41164 40356 ft 328 kts 282°
2026-04-21 12:33 33.16655 -99.43829 40737 ft 323 kts 282°
2026-04-21 12:33 33.17231 -99.46445 41117 ft 317 kts 282°
2026-04-21 12:34 33.17813 -99.49100 41511 ft 311 kts 282°
2026-04-21 12:34 33.18357 -99.51577 41883 ft 305 kts 282°
2026-04-21 12:34 33.18897 -99.54037 42198 ft 301 kts 282°
2026-04-21 12:34 33.19445 -99.56541 42486 ft 297 kts 282°
2026-04-21 12:35 33.19976 -99.58964 42769 ft 292 kts 282°
2026-04-21 12:35 33.20507 -99.61319 43047 ft 288 kts 283°
2026-04-21 12:35 33.21040 -99.63656 43178 ft 289 kts 283°
2026-04-21 12:35 33.21507 -99.65717 43205 ft 292 kts 282°
2026-04-21 12:36 33.21956 -99.67694 43214 ft 296 kts 283°
2026-04-21 12:36 33.23053 -99.72525 43216 ft 307 kts 283°
2026-04-21 12:37 33.24265 -99.77871 43210 ft 316 kts 283°
2026-04-21 12:37 33.25449 -99.83109 43196 ft 318 kts 283°
2026-04-21 12:38 33.26669 -99.88514 43199 ft 321 kts 283°
2026-04-21 12:38 33.27871 -99.93856 43199 ft 323 kts 283°
2026-04-21 12:39 33.29085 -99.99263 43190 ft 325 kts 283°
2026-04-21 12:39 33.30291 -100.04646 43189 ft 327 kts 283°
2026-04-21 12:40 33.31513 -100.10111 43189 ft 328 kts 283°
2026-04-21 12:40 33.32736 -100.15598 43189 ft 329 kts 283°
2026-04-21 12:41 33.33947 -100.21036 43187 ft 331 kts 283°
2026-04-21 12:41 33.35206 -100.26706 43187 ft 332 kts 283°
2026-04-21 12:42 33.36417 -100.32175 43186 ft 333 kts 283°
2026-04-21 12:42 33.37689 -100.37932 43184 ft 334 kts 283°
2026-04-21 12:43 33.38894 -100.43394 43177 ft 335 kts 283°
2026-04-21 12:43 33.40145 -100.49084 43169 ft 336 kts 283°
2026-04-21 12:44 33.41353 -100.54587 43171 ft 336 kts 283°
2026-04-21 12:44 33.42593 -100.60249 43174 ft 336 kts 283°
2026-04-21 12:45 33.43705 -100.65340 43175 ft 337 kts 282°
2026-04-21 12:45 33.44868 -100.70672 43187 ft 338 kts 282°
2026-04-21 12:46 33.46042 -100.76070 43186 ft 339 kts 282°
2026-04-21 12:46 33.47301 -100.81871 43185 ft 341 kts 282°
2026-04-21 12:47 33.48512 -100.87467 43184 ft 342 kts 282°
2026-04-21 12:47 33.49753 -100.93214 43179 ft 343 kts 282°
2026-04-21 12:48 33.50966 -100.98843 43177 ft 343 kts 282°
2026-04-21 12:48 33.52188 -101.04534 43179 ft 344 kts 282°
2026-04-21 12:49 33.53351 -101.10275 43176 ft 345 kts 282°
2026-04-21 12:49 33.54510 -101.16003 43173 ft 346 kts 282°
2026-04-21 12:50 33.55691 -101.21860 43172 ft 347 kts 282°
2026-04-21 12:50 33.56834 -101.27537 43169 ft 347 kts 282°
2026-04-21 12:51 33.58018 -101.33437 43167 ft 348 kts 282°
2026-04-21 12:51 33.59152 -101.39097 43166 ft 348 kts 282°
2026-04-21 12:52 33.60326 -101.44973 43165 ft 348 kts 282°
2026-04-21 12:52 33.61462 -101.50677 43164 ft 348 kts 282°
2026-04-21 12:53 33.62626 -101.56537 43163 ft 348 kts 282°
2026-04-21 12:53 33.63765 -101.62288 43160 ft 348 kts 282°
2026-04-21 12:54 33.64621 -101.66619 43168 ft 348 kts 282°
2026-04-21 12:54 33.65752 -101.72350 43169 ft 349 kts 282°
2026-04-21 12:55 33.66729 -101.77314 43168 ft 349 kts 282°
2026-04-21 12:55 33.67792 -101.82730 43169 ft 350 kts 282°
2026-04-21 12:56 33.69010 -101.88951 43172 ft 351 kts 282°
2026-04-21 12:56 33.70148 -101.94782 43175 ft 351 kts 282°
2026-04-21 12:57 33.71315 -102.00774 43174 ft 352 kts 282°
2026-04-21 12:57 33.72465 -102.06696 43175 ft 352 kts 282°
2026-04-21 12:58 33.73622 -102.12669 43176 ft 352 kts 282°
2026-04-21 12:58 33.74784 -102.18684 43178 ft 353 kts 282°
2026-04-21 12:59 33.75926 -102.24616 43179 ft 353 kts 282°
2026-04-21 12:59 33.77107 -102.30763 43180 ft 353 kts 282°
2026-04-21 13:00 33.78220 -102.36578 43180 ft 353 kts 282°
2026-04-21 13:00 33.79389 -102.42701 43179 ft 353 kts 282°
2026-04-21 13:01 33.80491 -102.48486 43178 ft 353 kts 282°
2026-04-21 13:01 33.81641 -102.54541 43180 ft 353 kts 282°
2026-04-21 13:02 33.82751 -102.60403 43181 ft 353 kts 282°
2026-04-21 13:02 33.83901 -102.66493 43187 ft 352 kts 281°